COSMOS 886 DEB

Satellite information

Favourite Embed

Satellite Type and Status

DEBRISIN ORBIT

Key statistics

Satellite COSMOS 886 DEB at a glance.

Uptime

17784

Days in orbit

Revolutions

≈ 13.3

Per day

Orbit

LEO

Low Earth Orbit

Inclination

65.8

Latest

Satellite identification and parameters

Extended collection of information and parameters for COSMOS 886 DEB.

Object identification

Identified? True

Debris? True

Object name: COSMOS 886 DEB

International designator: 1976-126G

Object number (NORAD): 9650

Object ID (CCSDS): 9650

Country: COMMONWEALTH OF INDEPENDENT STATES (CIS)

Current information (Y/N): Y

RCS size: SMALL

Orbital parameters

Period: 108.152 minutes

Inclination: 65.8137 deg

SMA: 7519.387 km

Apoapsis: 1790.487 km

Periapsis: 492.016 km

RAAN: 13.941 deg

Eccentricy: 0.08634155

Argument of periapsis: 161.8923 deg

Mean anomaly: 201.5021 deg

Mean motion: 13.31463078 rev/day

Mean motion (dot): 0.00008529 rev/day2

B* drag term: 0.0019752051 1/REarth

Two-line elements (TLE)

Creation date: Sept. 3, 2025, 2:21 a.m.

Reference frame: TEME

Reference center: EARTH

Epoch: Sept. 2, 2025, 6:03 p.m. UTC

TLE line 0: 0 COSMOS 886 DEB

TLE line 1: 1 09650U 76126G 25245.75235110 .00008529 00000-0 19752-2 0 9994

TLE line 2: 2 09650 65.8137 13.9410 0863415 161.8923 201.5021 13.31463078316677

Live tracking on map

Real-time ground track for satellite COSMOS 886 DEB.

In-orbit conjunctions

A list of the most updated potential collisions computed for object COSMOS 886 DEB.

Target Orbit TCA Probability of collision Miss distance Type
CZ-6A DEB LEO 2025-01-26 13:02:23 0.0001143231 103.0 (m) DEBRIS
THOR ABLESTAR DEB LEO 2024-12-12 13:21:51 0.0001071654 287.0 (m) DEBRIS

Associated space launch

Second generation ASAT satellite

COSMOS 886 DEB was lifted into orbit during the mission ‘Tsiklon-2 | IS-A 4’, on board a Tsiklon-2 space rocket.

The launch took place on Dec. 27, 1976, 12:05 p.m. from 90.

For more information about the launch, click the button.

Launch to space Tsiklon-2 | IS-A 4
Tsiklon-2 | IS-A 4

Agency: N/A

Status: Launch Successful

Launch date: Dec. 27, 1976, 12:05 p.m. UTC

Rocket: Tsiklon-2

Launch pad: 90

Location: Baikonur Cosmodrome, Republic of Kazakhstan

...

Latest news about this satellite

There are no fresh news available about this satellite. Check back as we update our databases every day.


Newsletter sign-up

Weekly statistics, charts and insights to help you stay on top of the space industry.